Home   Weather   Ukraine   Sloviansk   Past weeks
Flag for Ukraine

Past Weather in Sloviansk, Ukraine — Yesterday and Last 2 Weeks

Currently: 23 °F. Sunny. (Weather station: Belgorod, Ukraine). See more current weather

Past Weather in Sloviansk — Graph

°F

Sloviansk Temperature Yesterday

Maximum temperature yesterday: 30 °F (at 1:00 pm)
Minimum temperature yesterday: 21 °F (at 9:30 pm)
Average temperature yesterday: 25 °F

High & Low Weather Summary for the Past Weeks

 TemperatureHumidityPressure
High50 °F (Nov 22, 10:00 am)100% (Nov 16, 5:00 am)30.57 "Hg (Nov 16, 5:00 am)
Low19 °F (Nov 30, 1:00 am)64% (Nov 29, 1:00 pm)29.50 "Hg (Nov 18, 1:00 am)
Average31 °F93%30.02 "Hg
* Reported Nov 15 9:00 am — Nov 30 9:30 am, Sloviansk. Weather by CustomWeather, © 2022

Note: Actual official high and low records may vary slightly from our data, if they occured in-between our weather recording intervals... More about our weather records

Sloviansk Weather History for the Previous 24 Hours

Scroll right to see more
 ConditionsComfort  
Time TempWeatherWind HumidityBarometerVisibility
9:30 am
Wed, Nov 30
21 °FSunny.15 mph74%30.57 "Hg10 mi
9:00 am21 °FSunny.17 mph74%30.57 "Hg10 mi
8:00 am19 °FSunny.13 mph79%30.57 "Hg10 mi
7:30 am19 °FSunny.13 mph79%30.57 "Hg10 mi
7:00 am19 °FClear.13 mph79%30.57 "Hg10 mi
6:30 am19 °FClear.15 mph79%30.54 "Hg10 mi
6:00 am19 °FClear.15 mph79%30.54 "Hg10 mi
5:30 am19 °FClear.17 mph79%30.54 "Hg10 mi
5:00 am19 °FClear.15 mph86%30.54 "Hg10 mi
4:30 am19 °FClear.13 mph86%30.54 "Hg10 mi
4:00 am19 °FClear.13 mph86%30.54 "Hg10 mi
3:30 am19 °FClear.15 mph86%30.54 "Hg10 mi
3:00 am19 °FClear.13 mph86%30.57 "Hg10 mi
1:30 am19 °FClear.10 mph86%30.57 "Hg10 mi
1:00 am19 °FClear.13 mph86%30.57 "Hg10 mi
12:00 am21 °FClear.13 mph80%30.57 "Hg10 mi
11:30 pm
Tue, Nov 29
21 °FClear.13 mph80%30.57 "Hg10 mi
11:00 pm21 °FClear.13 mph80%30.57 "Hg10 mi
10:30 pm21 °FClear.15 mph86%30.57 "Hg10 mi
10:00 pm21 °FClear.15 mph86%30.57 "Hg10 mi
9:30 pm21 °FClear.15 mph86%30.57 "Hg10 mi
9:00 pm23 °FClear.15 mph80%30.57 "Hg10 mi
8:00 pm23 °FClear.15 mph80%30.57 "Hg10 mi
7:30 pm23 °FClear.17 mph80%30.54 "Hg10 mi
7:00 pm23 °FClear.15 mph80%30.54 "Hg10 mi
6:00 pm25 °FClear.13 mph74%30.54 "Hg10 mi
5:30 pm25 °FClear.10 mph74%30.54 "Hg10 mi
5:00 pm27 °FClear.13 mph74%30.54 "Hg10 mi
4:30 pm27 °FClear.8 mph74%30.54 "Hg10 mi
4:00 pm27 °FClear.10 mph69%30.54 "Hg10 mi
3:00 pm28 °FSunny.15 mph64%30.54 "Hg10 mi
2:00 pm30 °FSunny.15 mph64%30.54 "Hg10 mi
1:00 pm30 °FSunny.17 mph64%30.54 "Hg10 mi
12:30 pm28 °FSunny.15 mph69%30.54 "Hg10 mi
12:00 pm28 °FSunny.15 mph69%30.54 "Hg10 mi
11:30 am28 °FSunny.15 mph74%30.54 "Hg10 mi
11:00 am27 °FSunny.15 mph74%30.54 "Hg10 mi
10:30 am27 °FSunny.15 mph74%30.54 "Hg10 mi
10:00 am25 °FSunny.15 mph80%30.57 "Hg10 mi
Weather by CustomWeather, © 2022

See weather overview